BPO815 EDHL-ZZZZ

Flight info

Callsign BPO815
Flight time N/A
Altitude
Route
Aircraft

Departure

Time 2026-05-08 06:51
Airport Lübeck Blankensee Airport (EDHL)

Arrival

Time N/A
Airport ZZZZ
Time Latitude Longitude Altitude Speed Heading
2026-05-08 06:41 53.80412 10.70211 80 ft 12 kts 252°
2026-05-08 06:42 53.80388 10.70100 65 ft 6 kts 224°
2026-05-08 06:42 53.80367 10.70075 58 ft 2 kts 329°
2026-05-08 06:42 53.80366 10.70069 54 ft 0 kts 312°
2026-05-08 06:50 53.80368 10.70104 84 ft 5 kts 119°
2026-05-08 06:50 53.80354 10.70113 75 ft 1 kts 171°
2026-05-08 06:50 53.80241 10.70119 150 ft 33 kts 193°
2026-05-08 06:51 53.80140 10.69606 407 ft 57 kts 266°
2026-05-08 06:51 53.80211 10.68869 734 ft 78 kts 279°
2026-05-08 06:51 53.80404 10.67889 995 ft 90 kts 294°
2026-05-08 06:51 53.80765 10.66933 1165 ft 109 kts 308°
2026-05-08 06:52 53.81277 10.65989 1450 ft 97 kts 324°
2026-05-08 06:52 53.81854 10.65197 1576 ft 118 kts 316°
2026-05-08 06:52 53.82403 10.64055 1614 ft 132 kts 304°
2026-05-08 06:52 53.82906 10.62739 1696 ft 136 kts 301°
2026-05-08 06:53 53.83332 10.61298 1798 ft 136 kts 282°
2026-05-08 06:53 53.83411 10.59781 1990 ft 132 kts 266°
2026-05-08 06:53 53.83422 10.58173 1926 ft 142 kts 268°
2026-05-08 06:53 53.83430 10.56436 1774 ft 149 kts 264°
2026-05-08 06:54 53.83428 10.54648 1166 ft 146 kts 272°
2026-05-08 06:54 53.83742 10.52998 950 ft 151 kts 288°
2026-05-08 06:54 53.84102 10.51290 685 ft 153 kts 295°
2026-05-08 06:54 53.84815 10.50043 539 ft 148 kts 330°
2026-05-08 06:55 53.85748 10.49717 492 ft 137 kts
2026-05-08 06:55 53.86637 10.49302 410 ft 142 kts 332°
2026-05-08 06:55 53.87395 10.48402 509 ft 134 kts 310°
2026-05-08 06:55 53.87935 10.46930 590 ft 151 kts 301°
2026-05-08 06:56 53.88436 10.45296 814 ft 160 kts 296°
2026-05-08 06:56 53.88901 10.43557 1034 ft 165 kts 294°
2026-05-08 06:56 53.89383 10.41752 1097 ft 170 kts 294°
2026-05-08 06:56 53.89848 10.39966 1310 ft 93 kts 313°
2026-05-08 06:57 53.90367 10.38797 1206 ft 150 kts 301°
2026-05-08 06:57 53.90805 10.37115 1427 ft 161 kts 292°
2026-05-08 06:57 53.91222 10.35307 1647 ft 168 kts 292°
2026-05-08 06:57 53.91676 10.33426 1789 ft 168 kts 293°
2026-05-08 06:58 53.92221 10.31635 1974 ft 168 kts 299°
2026-05-08 06:58 53.92788 10.29872 2244 ft 174 kts 300°
2026-05-08 06:58 53.93221 10.27903 2265 ft 181 kts 285°
2026-05-08 06:58 53.93582 10.26135 1561 ft 145 kts 298°
2026-05-08 06:59 53.93970 10.24614 1312 ft 153 kts 287°
2026-05-08 06:59 53.94229 10.22846 1000 ft 153 kts 277°
2026-05-08 06:59 53.94391 10.21059 722 ft 152 kts 276°
2026-05-08 06:59 53.94569 10.19329 551 ft 147 kts 277°
2026-05-08 07:00 53.94721 10.17679 459 ft 136 kts 276°
2026-05-08 07:00 53.94803 10.16118 415 ft 130 kts 271°
2026-05-08 07:00 53.94901 10.14726 587 ft 113 kts 281°
2026-05-08 07:00 53.95034 10.13368 592 ft 119 kts 276°
2026-05-08 07:01 53.95127 10.11975 615 ft 121 kts 272°
2026-05-08 07:01 53.95154 10.11027 638 ft 122 kts 270°
2026-05-08 07:01 53.95150 10.09554 617 ft 128 kts 269°
2026-05-08 07:01 53.95206 10.08056 626 ft 128 kts 273°
2026-05-08 07:02 53.95318 10.06567 604 ft 130 kts 278°
2026-05-08 07:02 53.95404 10.05027 572 ft 131 kts 271°
2026-05-08 07:02 53.95456 10.03504 590 ft 128 kts 271°
2026-05-08 07:02 53.95453 10.01976 531 ft 130 kts 263°
2026-05-08 07:03 53.95310 10.00452 512 ft 130 kts 259°
2026-05-08 07:03 53.95144 9.98979 591 ft 124 kts 258°
2026-05-08 07:03 53.94995 9.97521 582 ft 127 kts 260°
2026-05-08 07:03 53.94809 9.96053 624 ft 127 kts 257°
2026-05-08 07:04 53.94637 9.94548 606 ft 131 kts 261°
2026-05-08 07:04 53.94587 9.93018 596 ft 129 kts 269°
2026-05-08 07:04 53.94491 9.91506 541 ft 128 kts 256°
2026-05-08 07:04 53.94666 9.90090 517 ft 114 kts 275°
2026-05-08 07:05 53.94198 9.89426 448 ft 96 kts 152°
2026-05-08 07:05 53.94180 9.90188 328 ft 52 kts 56°
2026-05-08 07:05 53.94276 9.90511 172 ft 13 kts 72°
2026-05-08 07:05 53.94284 9.90553 136 ft 5 kts
2026-05-08 07:06 53.94326 9.90437 143 ft 6 kts 190°
2026-05-08 07:06 53.94320 9.90435 122 ft 0 kts 211°